Tracking 19246 objects as of 19-Aug-2018
HD Live streaming from Space Station
objects crossing your sky now

TIROS 9

Track TIROS 9 now!
10-day predictions
TIROS 9 is classified as:


NORAD ID: 978
Int'l Code: 1965-004A
Perigee: 710.5 km
Apogee: 2,568.8 km
Inclination: 96.4 °
Period: 118.9 minutes
Semi major axis: 8010 km
RCS: 0.8367 m2 (medium)
Launch date: January 22, 1965
Source: United States (US)
Launch site: AIR FORCE EASTERN TEST RANGE (AFETR)
aabbcc
Your satellite tracking list
Your tracking list is empty




NASA's NSSDC Master Catalog

Two Line Element Set (TLE):
1 00978U 65004A   18230.57163955  .00000048  00000-0  67169-4 0  9999
2 00978  96.4060 289.6333 1159849  96.3740 277.0427 12.10877511365906
Source of the keplerian elements: AFSPC